Guymon, OK

4:33 AM CDT on March 27, 2017 (GMT -0500)
Guymon Municipal

Weather History for KGUY - May, 2013

Change the Weather History Date:

Saturday, May 25, 2013

  Actual Average Record
Temperature  
Mean Temperature 78 °F 68 °F  
Max Temperature 93 °F 81 °F 102 °F (2006)
Min Temperature 63 °F 54 °F 39 °F (2002)
Degree Days  
Heating Degree Days 0 2  
Month to date heating degree days 98 89  
Since 1 July heating degree days 4311 4442  
Cooling Degree Days 13 4  
Month to date cooling degree days 101 64  
Year to date cooling degree days 126 79  
Growing Degree Days 28 (Base 50)    
Moisture  
Dew Point 55 °F    
Average Humidity 52    
Maximum Humidity 78    
Minimum Humidity 26    
Precipitation  
Precipitation 0.00 in 0.10 in 0.91 in (2003)
Month to date precipitation 0.14 1.78  
Year to date precipitation 2.33 5.59  
Snow  
Snow 0.00 in - - ()
Month to date snowfall 0.3  
Since 1 July snowfall 22.3  
Snow Depth 0.00 in    
Sea Level Pressure  
Sea Level Pressure 29.85 in    
Wind  
Wind Speed 20 mph (SSW)    
Max Wind Speed 31 mph    
Max Gust Speed 41 mph    
Visibility 10 miles    
Events      
T = Trace of Precipitation, MM = Missing Value Source: NWS Daily Summary

Daily Weather History Graph

Daily Weather History Graph

Search for Another Location

Airport or City:

Trip Planner

Search our weather history database for the weather conditions in past years. The results will help you decide how hot, cold, wet, or windy it might be!

Date:

Astronomy

May. 25, 2013 Rise Set
Actual Time 6:31 AM CDT 8:54 PM CDT
Civil Twilight 6:02 AM CDT 9:24 PM CDT
Nautical Twilight 5:25 AM CDT 10:00 PM CDT
Astronomical Twilight 4:45 AM CDT 10:41 PM CDT
Moon 9:45 PM CDT (5/25) 7:00 AM CDT (5/25)
Length of Visible Light 15h 22m
Length of Day
14h 22m
Full, 100% of the Moon is Illuminated
May 25
Full
May 31
Last Quarter
Jun 8
New
Jun 16
First Quarter
Jun 23
Full

Hourly Weather History & Observations

Time (CDT) Temp. Heat Index Dew Point Humidity Pressure Visibility Wind Dir Wind Speed Gust Speed Precip Events Conditions
12:24 AM 73.4 °F - 51.8 °F 47% 30.14 in 10.0 mi WSW 9.2 mph - N/A   Mostly Cloudy
12:53 AM 73.0 °F - 48.9 °F 42% 30.00 in 10.0 mi West 12.7 mph - N/A   Scattered Clouds
1:53 AM 69.1 °F - 50.0 °F 51% 29.99 in 10.0 mi West 17.3 mph - N/A   Scattered Clouds
2:53 AM 64.9 °F - 51.1 °F 61% 29.94 in 10.0 mi SSW 8.1 mph - N/A   Clear
3:53 AM 64.0 °F - 51.1 °F 63% 29.94 in 10.0 mi SSW 10.4 mph - N/A   Clear
4:53 AM 66.9 °F - 57.0 °F 70% 29.91 in 10.0 mi South 17.3 mph - N/A   Clear
5:53 AM 66.0 °F - 57.9 °F 75% 29.89 in 10.0 mi SSW 18.4 mph - N/A   Clear
6:53 AM 64.9 °F - 57.0 °F 75% 29.90 in 10.0 mi SSW 19.6 mph - 0.01 in   Clear
7:53 AM 66.9 °F - 57.9 °F 73% 29.91 in 10.0 mi South 17.3 mph - N/A   Clear
8:53 AM 70.0 °F - 59.0 °F 68% 29.91 in 10.0 mi SSW 19.6 mph 28.8 mph N/A   Clear
9:53 AM 73.0 °F - 57.9 °F 59% 29.91 in 10.0 mi SSW 25.3 mph 36.8 mph N/A   Clear
10:53 AM 78.1 °F - 57.9 °F 50% 29.89 in 10.0 mi SSW 23.0 mph 32.2 mph N/A   Clear
11:53 AM 81.0 °F 81.0 °F 57.0 °F 44% 29.86 in 10.0 mi South 26.5 mph 32.2 mph N/A   Clear
12:53 PM 84.0 °F 83.3 °F 57.0 °F 40% 29.85 in 10.0 mi SSW 21.9 mph 32.2 mph N/A   Clear
1:53 PM 88.0 °F 86.5 °F 55.9 °F 34% 29.81 in 10.0 mi South 24.2 mph 31.1 mph N/A   Clear
2:53 PM 90.0 °F 87.9 °F 55.0 °F 30% 29.78 in 10.0 mi SSW 24.2 mph 32.2 mph N/A   Clear
3:53 PM 91.0 °F 88.9 °F 55.0 °F 29% 29.77 in 10.0 mi South 20.7 mph 33.4 mph N/A   Clear
4:53 PM 91.9 °F 89.5 °F 53.1 °F 27% 29.74 in 10.0 mi South 19.6 mph 28.8 mph N/A   Clear
5:53 PM 91.9 °F - 52.0 °F 26% 29.72 in 10.0 mi South 20.7 mph 32.2 mph N/A   Clear
6:53 PM 91.0 °F - 52.0 °F 26% 29.70 in 10.0 mi South 20.7 mph 31.1 mph N/A   Clear
7:53 PM 87.1 °F 85.3 °F 55.0 °F 33% 29.69 in 10.0 mi SSE 24.2 mph 36.8 mph N/A   Clear
8:53 PM 82.0 °F 81.4 °F 55.0 °F 39% 29.72 in 10.0 mi SSE 24.2 mph 36.8 mph N/A   Clear
9:53 PM 80.1 °F 80.1 °F 55.0 °F 42% 29.73 in 10.0 mi SSE 25.3 mph 38.0 mph N/A   Clear
10:53 PM 78.1 °F - 55.9 °F 46% 29.74 in 10.0 mi SSE 20.7 mph 29.9 mph N/A   Clear
11:53 PM 75.9 °F - 54.0 °F 46% 29.75 in 10.0 mi SSE 16.1 mph 25.3 mph N/A   Clear